Regional Weather Roundup
Issued by NWS Upton, NY

Home | Current Version | Previous Version | Text Only | Print | Product List | Glossary On
Versions: 1 2 3 4 5 6 7 8 9 10 11 12 13 14 15 16 17 18 19 20 21 22 23 24 25 26 27
000
ASUS41 KOKX 311604
RWROKX

REGIONAL WEATHER ROUNDUP
NATIONAL WEATHER SERVICE NEW YORK NY
1200 PM EDT WED AUG 31 2016

NOTE: "FAIR" INDICATES FEW OR NO CLOUDS BELOW 12,000 FEET WITH NO
SIGNIFICANT WEATHER AND/OR OBSTRUCTIONS TO VISIBILITY.

NYZ071-072-176-178-NJZ106-104-311700-
NEW YORK CITY METRO AREA

CITY           SKY/WX    TMP DP  RH WIND       PRES   REMARKS
Central Park   MOSUNNY   85  67  54 MISG      29.99F
LaGuardia APRT PTSUNNY   86  65  49 SW9       29.96F
Kennedy INTL   PTSUNNY   80  71  74 S8        29.98F
Newark/Liberty PTSUNNY   86  63  45 W9        29.96F
Bronx Bot Gard   N/A     82  63  51 NW5       29.99R
Wall St Helipt MOSUNNY   82  70  65 W3        29.97F
Teterboro      MOSUNNY   84  62  47 SW7       29.95F
$$

NYZ177-179-078>081-311700-
LONG ISLAND NEW YORK

CITY           SKY/WX    TMP DP  RH WIND       PRES   REMARKS
Farmingdale    MOSUNNY   83  66  56 SW6       29.97F
MacArthur/ISP  PTSUNNY   83  69  62 SW10      29.97F
Shirley        MOSUNNY   82  69  64 SW8       29.98F
Riverhead      NOT AVBL
Westhampton    CLOUDY    80  70  71 SW10G16   29.99F
Southampton      N/A     77  72  83 SW8       29.94F
Bridgehampton  NOT AVBL
East Hampton   FAIR      80  71  74 SW7       29.97F
Montauk          N/A     79  71  76 SW7       29.99F
$$

NYZ052-065-067-311700-
HUDSON VALLEY

CITY           SKY/WX    TMP DP  RH WIND       PRES   REMARKS
White Plains   CLOUDY    81  64  56 NW7       29.98F
Newburgh       NOT AVBL
Montgomery     CLOUDY    77  68  73 VRB3      29.98F
Poughkeepsie   CLOUDY    75  67  76 S5        29.96F
Albany         CLOUDY    72  63  73 VRB3      29.95F
$$

NJZ001-105-106-008-010-013-015-019>022-104-311700-
NEW JERSEY

CITY           SKY/WX    TMP DP  RH WIND       PRES   REMARKS
Newark/Liberty PTSUNNY   86  63  45 W9        29.96F
Teterboro      MOSUNNY   84  62  47 SW7       29.95F
Caldwell       MOSUNNY   83  66  56 SW5       29.97F
Morristown     PTSUNNY   82  66  57 SW8       29.97F
Somerville     MOSUNNY   83  63  50 VRB6      29.96F
Linden         FAIR      85  59  41 CALM      29.99S
Sussex         CLOUDY    79  67  66 VRB6      29.98F
Abdover          N/A     80  63  55 VRB5      29.99F
Trenton        SUNNY     85  62  46 NW7       29.97F
Millville      SUNNY     84  69  60 VRB5      29.99F
Atlantic City  SUNNY     87  64  46 W8        29.98F
Wrightstown    MOSUNNY   85  67  55 W7        29.95F
Toms River     MOSUNNY   88  63  43 W8        29.99F
Belmar         SUNNY     85  63  47 CALM      29.99F
$$

PAZ047>061-062-071-311700-
EASTERN PENNSYLVANIA

CITY           SKY/WX    TMP DP  RH WIND       PRES   REMARKS
Philadelphia   MOSUNNY   85  63  47 SW8       29.98F
Allentown      CLOUDY    85  63  47 W8        29.97F
Scranton       CLOUDY    76  64  66 W3        29.99F
$$

CTZ002-004>006-009-010-012-RIZ004-006-007-MAZ004-011-015-311700-
SOUTHERN NEW ENGLAND
 IN CT

CITY           SKY/WX    TMP DP  RH WIND       PRES   REMARKS
Bradley INTL   CLOUDY    77  66  68 SW8       29.96F
Hartford       CLOUDY    81  68  64 S8        29.96F
Danbury        MOSUNNY   76  66  71 W5        30.00F
Wtrbury/Oxford CLOUDY    75  64  69 SW6       30.02F
Bridgeport     PTSUNNY   81  69  67 SW10      29.97F
Meriden        CLOUDY    81  67  62 SW6       29.97F
New Haven      CLOUDY    79  69  71 SW8       29.98F
Chester        FAIR      79  70  73 SW3       29.98F
Groton         CLOUDY    79  72  79 SW9       29.97F
Wilimantic     CLOUDY    79  68  69 SW7       29.98F

 IN RI

CITY           SKY/WX    TMP DP  RH WIND       PRES   REMARKS
Providence     CLOUDY    81  66  60 SW10      29.97F
Block Island   CLOUDY    78  71  79 SW12      29.99F
Westerly       CLOUDY    79  69  71 SW8       29.98F
 IN MA

CITY           SKY/WX    TMP DP  RH WIND       PRES   REMARKS
Boston         CLOUDY    81  64  56 W7        29.94F
Worcester      MOSUNNY   74  62  66 SW9       29.99F
Westfield      CLOUDY    76  67  73 SE6       29.95F
Provincetown   PTSUNNY   79  69  71 SW13      29.96F
Nantucket      CLOUDY    73  68  84 S10       29.99F
$$

ANZ330-335-338-340-345-350-353-355-311700-
COASTAL MARINE OBSERVATIONS


STATION/POSITION TIME  SKY/WX   TEMP    WIND        PRES    VSBY  WAVE
                                AIR SEA DIR/SP/G                  HT/PER
                 (UTC)          (F)     (DEG/KT/KT) (MB)    (MI)  (FT/S)
NY HARB ENTRANCE 1450            74 78  270/  2/  4 1015.6          3/11
20S FIRE ISLAND  1450            76 76  260/  6/  8 1015.6          4/12
GREAT SOUTH BAY  1500            76 79  250/ 12/ 14   N/A
23 SSW MONTAUK P 1450            77 78  230/ 12/ 14 1016.1          4/12
15 E BARNEGAT LI 1500               78                N/A           3/12
HUDSON CANYON    1450            78 79              1016.1          4/12
KINGS POINT      1500            79 77              1015.1
EXECUTION ROCKS  1500            78     210/  6/  8   N/A
CENTRAL LI SOUND 1515            76 75  280/  8/ 10   N/A           1/ 3
EASTERN LI SOUND 1500            76 71  250/  8/ 10   N/A
ROBBINS REEF     1506            75     150/  9/ 10 1014.5
$$


>>>>>>>>>>>>>>>>>>>>>>>>>>>> KEY <<<<<<<<<<<<<<<<<<<<<<<<<<<
>                                                          <
>     SKY/WX - Sky Condition/Present Weather               <
>     TMP    - Temperature in Fahrenheit                   <
>     DP     - Dew Point in Fahrenheit                     <
>     RH     - Relative Humidity in Percent                <
>     WIND   - Direction (from) and Speed in MPH           <
>     PRES   - Mean Sea Level Pressure (inches of Hg)      <
>     WCI    - Wind Chill Index                            <
>     VSB    - VISIBILITY IN MILES                         <
>     HX     - HEAT INDEX                                  <
>     TC     - TEMPERATURE IN CELSIUS                      <
>     VRB    - VARIABLE WIND DIRECTION                     <
>                                                          <
>>>>>>>>>>>>>>>>>>>>>>>>>>>> KEY <<<<<<<<<<<<<<<<<<<<<<<<<<<




USA.gov is the U.S. government's official web portal to all federal, state and local government web resources and services.